#timestamp,LO_Frequency,Hit,StdDev 
1569283215.1,286046997.6,N
1569283235.9,286046997.6,N
1569283255.7,286046999.4,N
1569283275.5,286046999.6,N
1569283295.4,286046999.6,N
1569283315.2,286046999.5,N
1569283335.0,286046999.0,N
1569283335.9,286046999.0,N
1569283355.8,286046998.3,N
1569283375.6,286046999.3,N
1569283395.5,286046998.8,N
1569283415.3,286046997.6,N
1569283435.1,286046997.9,N
1569283455.9,286046997.3,N
1569283505.7,286046997.2,E
1569283515.7,286046996.5,N
1569283535.5,286047000.5,P
1569283555.3,286047011.9,P
1569283575.2,286046998.5,N
1569283595.0,286046999.1,N
1569283595.9,286046999.1,N
1569283615.7,286046999.0,N
1569283635.6,286046998.9,N
1569283655.4,286046997.0,N
1569283675.3,286046999.2,N
1569283695.1,286046996.9,N
1569283696.0,286046996.9,N
1569283715.8,286046996.9,N
1569283735.7,286046999.6,N
1569283755.5,286046996.9,N
1569283775.3,286046998.7,N
1569283795.2,286046999.6,N
1569283815.0,286047000.5,N
1569283815.9,286047000.5,N
1569283835.8,286046998.2,N
1569283855.6,286046998.8,N
1569283875.4,286046996.9,N
1569283895.3,286046999.6,N
1569283915.1,286046996.7,N
1569283935.9,286046997.4,N
1569283955.7,286046996.7,N
1569283975.5,286046996.6,N
1569283995.4,286046998.3,N
1569284015.2,286047002.3,N
1569284035.0,286046998.1,N
1569284036.0,286046998.1,N
1569284055.8,286046999.3,N
1569284075.6,286047000.7,N
1569284095.5,286047000.8,N
1569284115.3,286047000.1,N
1569284135.1,286047002.4,N
1569284155.9,286046999.7,N
1569284175.1,286047001.8,N
1569284176.0,286047001.8,N
1569284195.8,286047004.3,N
1569284215.7,286047001.9,N
1569284235.5,286047004.1,N
1569284255.3,286047003.8,N
1569284275.2,286046999.7,N
1569284295.0,286047002.4,N
1569284295.9,286047002.4,N
1569284315.7,286047002.7,N
1569284335.6,286047002.5,N
1569284355.4,286047002.4,N
1569284375.3,286047002.3,N
1569284395.1,286047002.5,N
1569284415.8,286047002.8,N
1569284435.7,286047000.3,N
1569284455.5,286046999.7,N
1569284475.4,286047001.3,N
1569284495.2,286047003.9,N
1569284515.0,286047003.7,N
1569284515.9,286047003.7,N
1569284535.8,286047001.3,N
1569284555.6,286046999.7,N
1569284575.5,286047001.5,N
1569284595.3,286047001.9,N
1569284615.1,286047001.6,N
1569284635.9,286047000.2,N
1569284655.7,286047000.0,N
1569284675.5,286047002.5,N
1569284695.4,286047002.4,N
1569284715.2,286047002.7,N
1569284735.1,286047000.1,N
1569284736.0,286047000.1,N
1569284755.8,286047001.5,N
1569284775.6,286046999.8,N
1569284795.5,286047001.5,N
1569284815.3,286047003.9,Y
1569284835.2,286047002.5,P
1569284855.9,286047002.1,P
1569284875.7,286047001.9,P
1569284895.6,286047002.6,Y
1569284915.4,286046998.8,P
1569284935.2,286046998.9,N
1569284955.1,286046997.0,N
1569284956.0,286046997.0,N
1569284975.8,286046999.2,N
1569284995.7,286046999.5,N
1569285015.5,286046999.3,N
1569285035.3,286046996.7,N
1569285055.2,286046998.7,N
1569285075.0,286047001.0,N
1569285075.9,286047001.0,N
1569285095.8,286047000.9,N
1569285115.6,286047000.9,N
1569285135.4,286046998.6,N
1569285155.3,286046998.1,N
1569285175.1,286047000.8,N
1569285195.9,286046998.2,N
1569285215.7,286046998.9,N
1569285235.5,286046999.1,N
1569285255.4,286046998.8,N
1569285275.2,286046999.1,N
1569285295.0,286046998.8,N
1569285295.9,286046998.8,N
1569285315.8,286047000.9,N
1569285335.6,286047001.0,N
1569285355.5,286047000.4,N
1569285375.3,286047001.0,N
1569285395.1,286047000.5,N
1569285415.9,286047001.1,N
1569285435.7,286046998.3,N
1569285455.6,286046998.2,N
1569285475.4,286046998.9,N
1569285495.2,286046999.2,N
1569285515.1,286046998.3,N
1569285516.0,286046998.3,N
1569285535.8,286046999.4,N
1569285555.6,286047001.1,N
1569285575.5,286047000.5,N
1569285595.3,286046998.2,N
1569285615.2,286046998.8,N
1569285635.9,286046998.9,N
1569285655.7,286046999.3,N
1569285675.6,286047000.8,N
1569285695.4,286046998.3,N
1569285715.3,286047000.7,N
1569285735.1,286046998.3,N
1569285755.8,286046998.1,N
1569285775.7,286047000.2,N
1569285795.5,286047000.7,N
1569285815.4,286047000.3,N
1569285835.2,286046998.9,N
1569285855.0,286046999.6,N
1569285855.9,286046999.6,N
1569285875.8,286046999.4,N
1569285895.6,286047000.0,N
1569285915.5,286047003.8,Y
1569285935.3,286047003.8,P
1569285955.1,286047003.7,N
1569285975.9,286047003.2,N
1569285995.7,286047004.2,N
1569286015.5,286047004.3,N
1569286035.4,286046999.9,N
1569286055.2,286047000.9,N
1569286075.1,286047000.4,N
1569286076.0,286047000.4,N
1569286095.8,286047000.5,N
1569286115.6,286047000.0,N
1569286135.5,286047001.2,N
1569286155.3,286047000.8,N
1569286175.2,286047001.0,N
1569286195.9,286047002.2,N
1569286215.7,286047001.8,N
1569286235.6,286047002.0,N
1569286255.4,286047002.1,N
1569286275.2,286047002.0,N
1569286295.1,286047001.4,N
1569286296.0,286047001.4,N
1569286315.8,286047002.2,N
1569286335.7,286047004.1,N
1569286355.5,286047003.8,N
1569286375.3,286047005.2,Y
1569286395.2,286047003.7,P
1569286415.0,286047005.8,P
1569286415.9,286047005.8,P
1569286435.8,286047003.4,N
1569286455.6,286047005.7,Y
1569286475.4,286047002.8,P
1569286495.3,286047002.4,P
1569286515.1,286047002.4,P
1569286535.9,286047002.4,Y
1569286555.7,286046999.4,P
1569286575.5,286046996.6,N
1569286595.4,286046998.9,N
1569286615.2,286046998.7,N
1569286635.0,286046999.1,N
1569286636.0,286046999.1,N
1569286655.8,286046999.5,N
1569286675.6,286046996.5,N
1569286695.5,286046997.0,N
1569286715.3,286046997.2,N
1569286735.1,286046996.7,N
1569286755.9,286046997.4,N
1569286775.7,286046997.0,N
1569286795.6,286046997.3,N
